Flag for U.S.A. Weather past 2 weeks in Amarillo, Texas, U.S.A.

Now
90 °F

Sunny.


Feels Like: 90 °F
Forecast: 71 / 90 °F
Wind: 17 mph from South

Location: Amarillo International Airport

Current Time: Aug 21, 2014 at 1:46:31 PM

Latest Report: Aug 21, 2014 at 12:53 PM


Visibility: 10 mi

Pressure: 29.83 "Hg

Humidity: 39%

Dew point: 62 °F

Location of AmarilloLocation

Historic Weather in Amarillo — Graph

°F

Amarillo temperature yesterday

Maximum temperature yesterday: 94 °F (at 2:53 PM)
Minimum temperature yesterday: 69 °F (at 6:53 AM)
Average temperature yesterday: 81 °F

Past Weeks' High & Low Weather Summary

 TemperatureHumidityPressure
High100 °F (Aug 6, 5:53 PM)94% (Aug 19, 4:53 AM)30.20 "Hg (Aug 19, 4:53 AM)
Low63 °F (Aug 12, 6:53 AM)14% (Aug 7, 2:53 PM)29.71 "Hg (Aug 20, 5:53 PM)
Average78 °F56%29.91 "Hg
* Reported Aug 6 12:53 PM — Aug 21 12:53 PM, Amarillo, Weather by CustomWeather, © 2014

Note: Actual official high and low records may vary slightly from our data, if they occured in-between our weather recording intervals... More about our weather records

Advertising

Amarillo weather history for previous 24 hours

 ConditionsComfort  
Time TempWeatherWind HumidityBarometerVisibility
12:53 PM
Aug 21
90 °FSunny.17 mph39%29.83 "Hg10 mi
11:53 AM87 °FSunny.17 mph46%29.83 "Hg10 mi
10:53 AM81 °FPassing clouds.15 mph54%29.84 "Hg10 mi
9:53 AM80 °FSunny.24 mph58%29.84 "Hg10 mi
8:53 AM76 °FSunny.21 mph67%29.85 "Hg10 mi
7:53 AM73 °FClear.17 mph74%29.82 "Hg10 mi
6:53 AM72 °FClear.15 mph76%29.81 "Hg10 mi
5:53 AM73 °FClear.16 mph74%29.81 "Hg10 mi
4:53 AM72 °FClear.14 mph73%29.80 "Hg10 mi
3:53 AM73 °FClear.16 mph71%29.80 "Hg10 mi
2:53 AM75 °FClear.18 mph66%29.79 "Hg10 mi
1:53 AM76 °FClear.17 mph62%29.78 "Hg10 mi
12:53 AM77 °FClear.16 mph62%29.80 "Hg10 mi
11:53 PM
Aug 20
80 °FClear.22 mph56%29.80 "Hg10 mi
10:53 PM82 °FPassing clouds.20 mph49%29.78 "Hg10 mi
9:53 PM82 °FClear.14 mph51%29.75 "Hg10 mi
8:53 PM85 °FSunny.17 mph45%29.74 "Hg10 mi
7:53 PM88 °FSunny.17 mph36%29.72 "Hg10 mi
6:53 PM91 °FSunny.21 mph32%29.72 "Hg10 mi
5:53 PM89 °FSunny.15 mph34%29.71 "Hg10 mi
4:53 PM94 °FSunny.20 mph28%29.71 "Hg10 mi
3:53 PM93 °FPassing clouds.17 mph31%29.72 "Hg10 mi
2:53 PM94 °FPassing clouds.15 mph30%29.73 "Hg10 mi
1:53 PM92 °FSunny.18 mph37%29.74 "Hg10 mi
Weather by CustomWeather, © 2014

See weather overviewHow to use our weather pages